Theta_e
353 355 364 367 368 367 365 363 364 365 365 365 364 364 365 366 367 368 367 367 367 368 366 366 364 363 364 362 361 361 360 360 359 361 364 364 363 361 358 356 361 361 357
355 358 365 366 367 367 368 366 366 366 365 365 365 364 364 364 366 367 367 365 365 366 365 364 363 362 361 361 360 360 362 366 366 365 364 363 362 361 359 357 360 360 361
356 357 358 366 368 368 369 367 367 367 366 364 365 364 364 363 364 364 363 363 363 363 363 364 366 363 362 362 360 360 361 363 365 362 357 352 352 359 359 358 356 357 361
356 357 359 365 367 368 369 367 368 366 366 365 363 364 364 363 363 362 362 361 361 361 361 362 362 363 364 362 363 361 360 360 360 360 355 354 352 358 357 357 357 356 358
357 358 363 366 367 367 368 369 369 367 367 364 362 362 360 360 362 362 362 361 361 361 361 361 360 360 361 362 361 362 360 361 360 356 357 360 359 359 359 358 357 355 355
357 359 363 366 364 366 367 367 368 363 362 358 355 357 355 355 355 360 362 361 361 360 359 359 359 358 358 358 358 357 354 353 358 355 354 351 356 359 359 358 359 356 354
356 359 361 367 366 366 367 367 363 360 358 356 351 351 351 353 355 354 358 360 360 360 360 359 358 359 358 356 354 354 355 354 355 355 354 349 349 348 351 357 359 358 356
355 357 359 365 366 366 365 363 364 361 358 355 353 351 353 350 351 354 354 357 359 360 359 357 358 357 356 355 354 353 355 354 351 352 352 351 352 350 352 354 357 357 358
355 357 360 360 364 364 366 364 362 362 359 355 354 354 352 349 347 354 353 355 356 357 357 356 357 357 356 355 354 353 354 356 354 351 351 351 352 352 354 354 358 358 358
353 355 357 359 359 361 363 364 363 362 360 358 355 356 353 352 349 354 352 354 354 355 356 356 356 355 356 356 355 355 355 354 352 355 353 352 352 353 355 357 357 359 359
352 353 353 354 357 356 359 362 364 363 362 360 357 356 354 347 345 345 351 352 355 355 355 355 355 357 357 357 355 355 355 355 354 352 352 353 351 355 355 355 357 356 357
348 351 352 354 356 357 356 361 366 364 356 356 357 357 356 353 344 344 347 350 354 357 355 354 355 359 357 357 355 358 355 358 354 356 355 354 353 357 358 356 356 355 356
349 352 353 356 357 358 357 362 368 366 360 361 358 354 359 354 347 347 346 345 352 356 352 353 354 355 356 357 354 352 356 353 354 354 354 352 350 356 358 357 356 354 354
349 352 354 358 360 360 358 357 358 365 362 363 360 358 353 358 359 357 349 354 353 352 351 353 350 359 358 356 353 354 353 355 355 354 357 354 354 356 358 356 355 354 354
349 352 355 358 361 360 361 359 357 362 365 362 363 363 357 354 359 360 355 358 353 353 351 351 352 356 356 353 353 354 354 355 355 354 356 356 356 356 355 354 357 357 357
350 352 355 357 361 362 362 363 358 357 358 365 362 362 361 356 356 355 358 359 356 355 353 349 356 352 352 352 352 354 356 355 355 356 352 358 358 356 354 356 359 359 359
352 353 354 357 359 361 362 361 360 357 355 365 366 362 360 359 358 361 355 355 353 353 355 356 355 354 352 352 353 355 355 357 356 356 354 354 358 358 357 356 358 360 360
354 355 357 355 356 360 361 361 358 358 358 365 358 360 360 361 360 360 355 357 363 356 356 352 352 351 353 354 352 354 354 354 356 356 355 354 355 355 357 359 359 359 359
356 357 358 356 354 359 362 361 361 363 365 349 356 353 357 359 356 363 354 360 360 360 360 359 353 352 351 351 352 351 353 353 354 352 353 356 355 354 353 360 362 361 359
356 358 356 353 357 361 360 362 363 363 363 357 353 355 356 359 357 359 358 361 358 364 361 356 360 360 354 352 350 349 351 352 352 352 352 353 352 352 352 356 358 357 361
356 357 359 358 353 363 358 357 357 362 361 355 356 354 358 359 360 356 352 357 358 364 357 357 357 355 353 356 357 348 350 352 353 351 350 349 350 351 350 353 354 352 358
355 357 360 362 363 361 359 360 359 357 362 359 356 357 358 360 360 363 354 354 361 367 361 360 361 354 354 355 350 353 339 344 347 348 349 347 347 350 350 352 353 355 354
349 352 359 363 364 364 364 362 361 361 363 362 355 356 356 360 361 361 361 357 358 363 363 361 358 358 349 354 354 355 344 336 340 344 348 347 350 348 348 351 354 356 358
347 350 357 361 364 365 365 363 363 363 358 366 366 366 360 361 361 359 360 362 359 355 357 364 356 360 355 352 353 352 352 351 338 336 344 347 350 349 349 351 352 355 358
350 349 349 359 363 363 364 365 363 358 359 368 355 358 361 361 362 361 362 364 362 361 356 358 357 356 352 354 351 358 352 349 351 342 338 341 346 348 349 350 349 352 356
354 355 351 355 362 363 363 364 364 362 363 357 365 362 354 355 357 362 361 361 366 360 362 359 359 357 355 355 352 351 348 345 343 343 339 341 340 347 349 350 350 350 351
Wind_Speed
11 10 10 14 16 16 18 17 18 17 17 16 14 14 15 16 16 16 16 16 15 15 16 16 16 16 16 16 17 17 17 16 16 15 16 17 16 16 13 11 13 15 14
17 15 11 12 14 13 17 17 17 17 17 15 14 13 13 14 16 16 15 15 15 14 15 16 15 16 15 16 16 16 15 14 15 15 15 15 15 14 13 12 12 13 14
18 16 14 13 14 15 17 18 17 15 16 14 13 12 12 13 14 15 15 14 13 14 14 14 14 15 14 15 14 14 13 13 14 11 5 8 12 12 13 12 12 12 12
18 18 17 13 14 16 16 18 17 16 17 14 11 11 9 10 11 13 14 13 12 12 13 13 13 12 13 12 12 12 12 11 12 13 6 8 9 10 12 12 11 10 11
17 17 17 14 15 16 16 17 17 17 17 15 12 11 8 6 8 10 12 12 11 10 10 11 11 11 10 9 9 9 8 9 10 5 7 6 1 11 10 12 12 9 6
16 16 16 15 15 15 16 17 17 17 18 17 13 12 10 4 2 7 10 10 10 9 9 9 9 9 9 7 5 5 6 6 10 9 9 8 3 8 7 5 10 10 8
16 17 16 14 14 15 15 16 16 18 17 19 15 11 3 4 9 2 6 8 9 8 7 6 6 7 6 6 4 2 3 5 6 2 1 1 7 5 2 6 8 9 8
15 16 17 14 15 14 15 16 17 19 18 17 17 18 7 4 2 11 4 4 6 7 5 4 4 5 4 3 2 1 3 4 6 6 6 6 12 5 4 4 6 7 8
15 16 14 15 14 15 14 15 17 18 19 19 18 18 18 7 6 13 7 5 3 4 4 4 3 3 2 1 2 2 4 5 7 4 5 7 11 5 5 8 8 8 8
12 14 13 13 14 14 14 15 17 18 19 19 19 19 21 15 13 15 11 6 4 2 3 3 2 2 2 2 3 5 6 7 10 3 7 6 6 5 6 12 11 10 8
11 13 14 14 13 13 12 14 15 18 18 17 17 18 19 11 10 14 13 7 6 4 1 0 2 4 4 5 5 4 6 6 5 7 4 10 2 5 5 11 11 9 9
15 15 13 14 13 12 11 13 12 12 12 11 10 15 11 13 13 17 18 12 10 8 5 4 4 5 9 4 8 8 8 2 5 2 2 8 1 5 7 10 11 8 8
15 12 14 11 11 11 8 9 5 6 4 7 11 7 10 8 11 11 9 10 10 13 8 10 8 9 5 6 3 4 2 5 3 3 7 5 2 5 7 8 9 8 8
15 13 12 13 11 10 6 6 8 6 6 5 9 13 5 5 6 7 6 7 7 5 6 4 5 2 6 4 6 5 6 4 3 2 5 5 3 3 7 7 8 8 9
15 14 13 12 11 10 8 8 7 4 5 7 8 10 8 10 6 7 9 8 7 6 6 6 6 5 5 6 6 5 6 5 4 4 2 8 3 5 6 6 6 8 9
14 14 14 14 12 11 10 8 6 6 8 5 6 7 11 8 6 8 8 7 8 8 7 6 6 5 6 5 6 6 6 6 4 4 4 7 8 6 6 5 5 8 9
13 13 14 13 13 12 11 9 8 6 7 5 6 9 10 8 6 6 3 4 5 6 7 6 6 6 6 6 6 5 7 7 6 7 6 5 11 11 8 6 6 6 9
12 12 12 10 12 13 11 9 8 8 7 3 1 2 7 8 9 9 5 7 7 5 7 7 6 6 5 5 4 5 6 6 7 7 7 6 5 3 11 10 8 7 7
13 11 12 11 12 13 11 9 9 8 4 6 5 3 7 9 9 10 7 6 4 6 6 5 7 6 6 6 5 7 8 6 6 6 7 7 6 6 4 14 10 8 8
15 15 12 9 12 11 9 9 8 7 4 7 8 6 10 6 7 11 8 7 9 5 9 7 5 4 7 5 6 4 6 7 6 5 7 7 7 8 8 5 9 10 13
12 13 16 15 13 12 10 9 8 7 7 7 7 10 12 11 9 10 5 7 8 6 8 5 6 7 5 5 5 6 6 7 7 6 6 6 6 7 6 5 5 4 10
13 14 15 14 14 13 9 8 7 6 7 8 8 11 11 11 9 9 7 9 8 6 6 6 7 5 4 4 3 4 7 7 7 9 7 6 8 7 8 7 6 6 5
14 12 11 12 13 12 11 8 7 5 5 4 7 10 9 13 12 10 9 7 5 5 6 6 6 7 5 4 8 5 2 1 8 8 7 7 6 6 6 6 7 8 8
13 10 12 12 13 11 12 11 11 6 7 7 6 7 7 9 9 12 12 10 11 6 9 7 7 7 6 5 5 7 6 5 3 3 6 7 7 7 7 7 8 8 8
17 13 7 10 12 11 14 13 9 10 7 5 6 8 7 7 10 11 11 11 10 8 9 10 7 7 5 4 6 3 6 6 5 8 2 6 7 7 7 8 7 7 9
16 15 13 11 14 13 14 15 14 11 10 7 7 6 7 7 7 9 10 10 10 10 10 9 9 9 8 6 7 10 6 7 7 7 7 5 6 4 6 7 8 7 7
Wind_Direction
145 131 133 136 137 132 132 135 138 135 136 127 121 120 116 109 105 102 102 99 98 98 101 96 100 99 104 107 108 110 112 112 108 104 101 102 102 99 101 111 142 93 99
143 140 132 135 134 132 134 136 139 134 136 126 124 123 116 112 110 108 105 104 103 102 102 106 102 106 105 109 111 115 117 110 113 109 105 100 98 100 99 85 72 89 91
141 138 141 134 135 134 132 137 134 132 134 129 128 124 121 113 113 110 108 107 106 105 102 100 106 107 107 112 115 121 125 120 117 108 156 95 101 110 105 102 100 100 87
145 149 142 131 135 135 135 139 137 139 137 137 128 121 123 120 120 115 114 112 109 107 108 107 103 102 109 111 124 131 139 137 128 140 124 110 111 119 117 113 107 104 104
150 143 120 134 136 140 140 143 139 139 132 129 132 122 110 124 122 122 119 119 115 113 109 109 109 110 110 118 126 138 139 131 125 92 87 117 70 120 128 126 126 117 60
150 134 134 138 138 140 142 144 144 139 128 119 107 77 75 2 166 141 128 129 128 122 116 113 112 110 111 117 134 153 151 150 196 135 134 96 38 118 138 129 113 115 113
153 131 149 148 145 143 140 141 145 146 146 136 124 78 95 81 333 238 139 139 137 130 127 120 115 110 111 112 121 142 169 183 321 95 87 121 160 134 127 153 146 140 138
150 145 141 151 155 151 148 149 148 152 157 144 148 159 144 56 272 288 250 176 155 146 140 134 123 110 104 105 112 151 207 205 209 220 226 231 101 156 185 188 173 168 154
149 150 159 160 157 162 161 161 157 157 163 159 164 162 144 172 241 275 282 246 208 174 152 141 127 115 123 97 129 205 202 186 270 252 233 220 124 204 197 197 198 187 174
158 148 164 165 168 169 163 168 169 168 169 173 175 168 159 169 208 266 263 231 240 225 182 154 159 186 195 141 183 207 202 213 241 254 219 87 96 256 226 201 195 193 191
170 167 170 169 173 181 175 169 171 175 174 174 177 178 169 166 204 249 242 290 252 245 261 240 250 226 219 191 193 210 224 225 214 194 200 105 170 261 196 191 193 197 202
175 182 174 179 174 183 178 169 183 180 180 190 180 178 191 181 199 223 237 239 253 236 248 252 270 273 229 207 167 199 230 281 219 224 108 101 227 250 213 201 205 208 205
178 187 175 183 179 184 196 165 192 190 171 184 186 192 205 194 193 212 229 227 229 209 241 199 211 222 153 238 219 284 10 240 231 219 96 97 283 325 200 197 195 208 208
183 188 181 179 182 201 182 200 189 183 182 216 197 187 201 207 210 193 222 229 239 236 228 243 258 28 269 201 246 217 242 281 232 251 124 106 233 214 181 184 194 199 209
187 188 186 188 189 197 208 203 224 149 185 198 202 200 189 207 219 184 220 238 236 223 214 233 255 226 219 232 235 229 243 242 272 258 270 116 147 178 190 206 199 205 214
192 191 196 197 188 202 207 218 223 222 215 183 207 190 193 211 212 234 191 215 233 224 229 226 227 239 222 234 225 221 228 267 232 275 261 146 157 181 202 214 217 208 215
192 189 197 198 192 201 204 209 222 226 226 176 208 203 198 193 206 218 233 308 207 196 222 222 221 224 237 220 236 240 239 230 244 235 240 262 148 179 200 215 215 207 210
197 190 201 200 198 201 207 206 221 219 232 130 345 271 240 211 212 213 205 196 245 213 212 208 209 200 230 227 261 276 235 241 212 224 234 243 216 210 177 200 213 218 228
190 190 198 197 218 198 206 217 219 218 213 128 227 199 247 251 207 234 195 214 194 215 225 227 218 225 227 240 198 230 240 247 220 211 186 215 226 252 212 165 191 217 228
191 180 196 173 240 211 202 215 223 214 186 171 195 197 229 236 223 213 231 190 214 203 229 221 209 236 251 254 255 214 235 237 222 232 212 198 211 212 216 172 174 200 208
206 192 193 193 185 225 201 207 213 213 181 186 195 214 232 234 224 233 205 207 206 230 248 190 214 212 241 249 267 274 245 220 206 225 216 219 187 213 225 195 231 230 178
212 207 196 200 189 205 203 219 226 216 176 196 196 221 224 239 229 216 182 240 192 231 223 227 212 218 232 248 229 217 230 185 217 209 198 218 213 200 196 203 220 223 263
196 200 201 199 199 196 215 208 219 226 232 191 210 224 221 229 231 222 197 212 248 244 243 197 242 220 232 206 222 261 309 265 172 184 191 213 208 235 225 196 206 209 215
199 162 194 196 205 195 196 218 220 208 228 203 203 223 220 226 214 223 214 206 214 209 242 235 200 237 239 195 239 225 268 342 281 156 201 208 202 228 210 211 203 209 211
200 172 200 178 203 204 192 214 215 219 221 226 211 205 209 222 223 219 218 214 220 207 213 242 234 223 250 227 246 286 223 229 237 295 132 209 193 220 224 217 225 219 201
207 196 205 185 201 195 202 199 215 220 215 213 212 224 218 212 204 209 224 223 225 219 221 213 226 233 240 243 222 236 242 217 218 225 247 237 244 210 210 216 238 227 226